Sedona, AZ

11:36 AM MST on April 29, 2017 (GMT -0700)
Sedona

Weather History for KSEZ - November, 2012

Change the Weather History Date:

Tuesday, November 20, 2012

  Actual Average Record
Temperature  
Mean Temperature 58 °F -  
Max Temperature 69 °F 62 °F 69 °F (2012)
Min Temperature 48 °F 33 °F 41 °F (2014)
Degree Days  
Heating Degree Days 6    
Growing Degree Days 8 (Base 50)    
Moisture  
Dew Point 28 °F    
Average Humidity 32    
Maximum Humidity 43    
Minimum Humidity 20    
Precipitation  
Precipitation 0.00 in - - ()
Sea Level Pressure  
Sea Level Pressure 30.23 in    
Wind  
Wind Speed 9 mph (ENE)    
Max Wind Speed 15 mph    
Max Gust Speed 20 mph    
Visibility 10 miles    
Events      
Averages and records for this station are not official NWS values.
T = Trace of Precipitation, MM = Missing Value Source: NWS Daily Summary

Daily Weather History Graph

Daily Weather History Graph

Search for Another Location

Airport or City:

Trip Planner

Search our weather history database for the weather conditions in past years. The results will help you decide how hot, cold, wet, or windy it might be!

Date:

Astronomy

Nov. 20, 2012 Rise Set
Actual Time 7:06 AM MST 5:18 PM MST
Civil Twilight 6:39 AM MST 5:46 PM MST
Nautical Twilight 6:08 AM MST 6:16 PM MST
Astronomical Twilight 5:38 AM MST 6:46 PM MST
Moon 12:51 PM MST (11/20) No Moon Set
Length of Visible Light 11h 06m
Length of Day
10h 12m
First Quarter, 52% of the Moon is Illuminated
Nov 20
First Quarter
Nov 28
Full
Dec 6
Last Quarter
Dec 13
New
Dec 19
First Quarter

Hourly Weather History & Observations

Time (MST) Temp. Dew Point Humidity Pressure Visibility Wind Dir Wind Speed Gust Speed Precip Events Conditions
12:15 AM 51.8 °F 24.8 °F 35% 30.30 in 10.0 mi NE 15.0 mph - N/A   Clear
12:35 AM 51.8 °F 24.8 °F 35% 30.30 in 10.0 mi NE 12.7 mph - N/A   Clear
12:55 AM 51.8 °F 24.8 °F 35% 30.29 in 10.0 mi ENE 11.5 mph - N/A   Clear
1:15 AM 51.8 °F 24.8 °F 35% 30.29 in 10.0 mi NE 10.4 mph - N/A   Clear
1:35 AM 50.0 °F 24.8 °F 37% 30.29 in 10.0 mi NE 11.5 mph - N/A   Clear
5:15 AM 50.0 °F 26.6 °F 40% 30.27 in 10.0 mi NE 11.5 mph - N/A   Clear
5:35 AM 50.0 °F 26.6 °F 40% 30.27 in 10.0 mi NE 11.5 mph - N/A   Clear
5:55 AM 50.0 °F 26.6 °F 40% 30.27 in 10.0 mi NE 11.5 mph - N/A   Clear
6:15 AM 50.0 °F 26.6 °F 40% 30.27 in 10.0 mi NE 12.7 mph - N/A   Clear
6:35 AM 48.2 °F 26.6 °F 43% 30.27 in 10.0 mi NE 13.8 mph 19.6 mph N/A   Clear
6:55 AM 48.2 °F 26.6 °F 43% 30.28 in 10.0 mi NE 13.8 mph - N/A   Clear
7:15 AM 50.0 °F 26.6 °F 40% 30.28 in 10.0 mi ENE 12.7 mph 17.3 mph N/A   Clear
7:35 AM 50.0 °F 26.6 °F 40% 30.29 in 10.0 mi ENE 11.5 mph 16.1 mph N/A   Clear
7:55 AM 50.0 °F 26.6 °F 40% 30.29 in 10.0 mi ENE 11.5 mph 17.3 mph N/A   Clear
8:15 AM 51.8 °F 26.6 °F 38% 30.30 in 10.0 mi ENE 11.5 mph 16.1 mph N/A   Clear
8:35 AM 51.8 °F 26.6 °F 38% 30.30 in 10.0 mi ENE 5.8 mph - N/A   Clear
8:55 AM 53.6 °F 28.4 °F 38% 30.30 in 10.0 mi ENE 6.9 mph - N/A   Clear
9:15 AM 55.4 °F 28.4 °F 36% 30.30 in 10.0 mi East 10.4 mph - N/A   Clear
9:35 AM 59.0 °F 28.4 °F 31% 30.30 in 10.0 mi East 4.6 mph - N/A   Clear
9:55 AM 59.0 °F 30.2 °F 34% 30.30 in 10.0 mi SSE 3.5 mph - N/A   Clear
10:15 AM 59.0 °F 30.2 °F 34% 30.30 in 10.0 mi Calm Calm - N/A   Clear
10:35 AM 60.8 °F 30.2 °F 31% 30.29 in 10.0 mi SE 3.5 mph - N/A   Clear
10:55 AM 60.8 °F 30.2 °F 31% 30.28 in 10.0 mi Calm Calm - N/A   Clear
11:15 AM 64.4 °F 30.2 °F 28% 30.27 in 10.0 mi South 3.5 mph - N/A   Clear
11:35 AM 64.4 °F 30.2 °F 28% 30.26 in 10.0 mi Calm Calm - N/A   Clear
11:55 AM 68.0 °F 30.2 °F 24% 30.25 in 10.0 mi Calm Calm - N/A   Clear
12:15 PM 66.2 °F 30.2 °F 26% 30.23 in 10.0 mi Calm Calm - N/A   Clear
12:35 PM 68.0 °F 30.2 °F 24% 30.22 in 10.0 mi South 5.8 mph - N/A   Clear
12:55 PM 69.8 °F 30.2 °F 23% 30.21 in 10.0 mi South 9.2 mph - N/A   Clear
1:15 PM 69.8 °F 30.2 °F 23% 30.20 in 10.0 mi South 6.9 mph - N/A   Clear
1:35 PM 69.8 °F 30.2 °F 23% 30.19 in 10.0 mi WSW 4.6 mph - N/A   Clear
1:55 PM 69.8 °F 28.4 °F 21% 30.19 in 10.0 mi South 5.8 mph - N/A   Clear
2:15 PM 69.8 °F 28.4 °F 21% 30.18 in 10.0 mi WSW 3.5 mph - N/A   Clear
2:35 PM 68.0 °F 28.4 °F 23% 30.18 in 10.0 mi West 4.6 mph - N/A   Clear
2:55 PM 69.8 °F 28.4 °F 21% 30.17 in 10.0 mi South 5.8 mph - N/A   Clear
3:15 PM 69.8 °F 28.4 °F 21% 30.17 in 10.0 mi SSE 5.8 mph - N/A   Clear
3:35 PM 69.8 °F 28.4 °F 21% 30.17 in 10.0 mi West 3.5 mph - N/A   Clear
3:55 PM 69.8 °F 28.4 °F 21% 30.17 in 10.0 mi SE 3.5 mph - N/A   Clear
4:15 PM 69.8 °F 26.6 °F 20% 30.17 in 10.0 mi SSW 3.5 mph - N/A   Clear
4:35 PM 68.0 °F 26.6 °F 21% 30.17 in 10.0 mi Calm Calm - N/A   Clear
4:55 PM 66.2 °F 28.4 °F 24% 30.17 in 10.0 mi Calm Calm - N/A   Clear
5:15 PM 64.4 °F 28.4 °F 26% 30.17 in 10.0 mi Calm Calm - N/A   Clear
5:35 PM 64.4 °F 28.4 °F 26% 30.17 in 10.0 mi Calm Calm - N/A   Clear
5:55 PM 64.4 °F 28.4 °F 26% 30.17 in 10.0 mi Calm Calm - N/A   Clear
6:15 PM 64.4 °F 28.4 °F 26% 30.17 in 10.0 mi Calm Calm - N/A   Clear
6:35 PM 62.6 °F 28.4 °F 27% 30.17 in 10.0 mi NE 3.5 mph - N/A   Clear
6:55 PM 60.8 °F 28.4 °F 29% 30.17 in 10.0 mi NE 8.1 mph - N/A   Clear
7:15 PM 59.0 °F 28.4 °F 31% 30.17 in 10.0 mi NE 9.2 mph - N/A   Clear
7:35 PM 59.0 °F 28.4 °F 31% 30.17 in 10.0 mi NE 8.1 mph - N/A   Clear
7:55 PM 57.2 °F 28.4 °F 33% 30.18 in 10.0 mi NE 9.2 mph - N/A   Clear
8:15 PM 57.2 °F 28.4 °F 33% 30.19 in 10.0 mi NNE 9.2 mph - N/A   Clear
8:35 PM 55.4 °F 28.4 °F 36% 30.19 in 10.0 mi NNE 8.1 mph - N/A   Clear
8:55 PM 55.4 °F 28.4 °F 36% 30.19 in 10.0 mi NNE 9.2 mph - N/A   Clear
9:15 PM 55.4 °F 28.4 °F 36% 30.19 in 10.0 mi NNE 10.4 mph - N/A   Clear
9:35 PM 53.6 °F 28.4 °F 38% 30.19 in 10.0 mi NE 10.4 mph - N/A   Clear
9:55 PM 53.6 °F 28.4 °F 38% 30.19 in 10.0 mi NE 11.5 mph - N/A   Clear
10:15 PM 53.6 °F 28.4 °F 38% 30.19 in 10.0 mi NNE 11.5 mph - N/A   Clear
10:35 PM 53.6 °F 28.4 °F 38% 30.19 in 10.0 mi NNE 11.5 mph - N/A   Clear
10:55 PM 53.6 °F 26.6 °F 35% 30.19 in 10.0 mi NE 12.7 mph - N/A   Clear
11:15 PM 53.6 °F 26.6 °F 35% 30.19 in 10.0 mi NE 12.7 mph - N/A   Clear
11:35 PM 53.6 °F 26.6 °F 35% 30.19 in 10.0 mi NE 12.7 mph - N/A   Clear
11:55 PM 51.8 °F 26.6 °F 38% 30.19 in 10.0 mi NE 12.7 mph - N/A   Clear